NSZ3752 EKCH-LIBD

Flight info

Callsign NSZ3752
Flight time 2h 18m
Altitude 35000
Route SIMEG DCT BALOX M736 SALLO M44 KOGIM DCT MASOR DCT GERGA M725 KOBUS/N0438F340 DCT PIKIB Z36 MAREM/N0440F350 DCT BUDEX DCT TIVAP DCT EPOLA DCT NEMEK DCT NUPSO DCT XOLTA DCT VIE/N0349F190 T415 EKMUR
Aircraft B738/M-SDE2E3GHIJ1LRWXY/LB1

Departure

Time 2026-04-24 10:09
Airport Copenhagen Kastrup Airport (EKCH)

Arrival

Time 2026-04-24 12:27
Airport Bari Karol Wojtyła International Airport (LIBD)
Time Latitude Longitude Altitude Speed Heading
2026-04-24 09:21 55.62561 12.64508 27 ft 0 kts 16°
2026-04-24 09:55 55.62545 12.64500 24 ft 4 kts 16°
2026-04-24 09:55 55.62524 12.64490 23 ft 4 kts 24°
2026-04-24 09:55 55.62508 12.64466 23 ft 4 kts 92°
2026-04-24 09:55 55.62511 12.64443 23 ft 5 kts 123°
2026-04-24 09:56 55.62498 12.64478 25 ft 4 kts 123°
2026-04-24 09:56 55.62492 12.64496 23 ft 0 kts 123°
2026-04-24 10:00 55.62488 12.64501 25 ft 2 kts 141°
2026-04-24 10:00 55.62454 12.64487 23 ft 7 kts 210°
2026-04-24 10:00 55.62409 12.64456 23 ft 7 kts 194°
2026-04-24 10:01 55.62362 12.64435 23 ft 7 kts 194°
2026-04-24 10:01 55.62299 12.64406 22 ft 12 kts 195°
2026-04-24 10:01 55.62204 12.64407 20 ft 15 kts 168°
2026-04-24 10:01 55.62102 12.64442 22 ft 15 kts 169°
2026-04-24 10:02 55.62004 12.64474 23 ft 14 kts 169°
2026-04-24 10:02 55.61910 12.64505 23 ft 13 kts 169°
2026-04-24 10:02 55.61821 12.64534 24 ft 13 kts 169°
2026-04-24 10:02 55.61734 12.64562 25 ft 13 kts 169°
2026-04-24 10:03 55.61651 12.64536 23 ft 12 kts 206°
2026-04-24 10:03 55.61581 12.64453 25 ft 12 kts 212°
2026-04-24 10:03 55.61511 12.64377 23 ft 12 kts 212°
2026-04-24 10:03 55.61446 12.64300 24 ft 11 kts 214°
2026-04-24 10:04 55.61380 12.64224 23 ft 11 kts 213°
2026-04-24 10:04 55.61317 12.64151 23 ft 11 kts 212°
2026-04-24 10:04 55.61249 12.64073 23 ft 13 kts 213°
2026-04-24 10:04 55.61156 12.63968 23 ft 18 kts 213°
2026-04-24 10:05 55.61042 12.63836 23 ft 21 kts 213°
2026-04-24 10:05 55.60918 12.63693 23 ft 21 kts 213°
2026-04-24 10:05 55.60838 12.63601 23 ft 6 kts 213°
2026-04-24 10:05 55.60801 12.63588 23 ft 6 kts 165°
2026-04-24 10:06 55.60770 12.63631 24 ft 6 kts 124°
2026-04-24 10:06 55.60743 12.63687 23 ft 0 kts 131°
2026-04-24 10:07 55.60734 12.63706 24 ft 8 kts 131°
2026-04-24 10:08 55.60690 12.63805 26 ft 11 kts 116°
2026-04-24 10:08 55.60710 12.63919 24 ft 10 kts 42°
2026-04-24 10:08 55.60794 12.64046 29 ft 41 kts 41°
2026-04-24 10:08 55.61213 12.64696 25 ft 113 kts 41°
2026-04-24 10:09 55.61950 12.65834 32 ft 166 kts 40°
2026-04-24 10:09 55.62858 12.67242 611 ft 175 kts 41°
2026-04-24 10:09 55.63786 12.68701 1361 ft 182 kts 41°
2026-04-24 10:09 55.64720 12.70173 2248 ft 174 kts 40°
2026-04-24 10:10 55.65649 12.71578 2872 ft 182 kts 38°
2026-04-24 10:10 55.66675 12.73093 3198 ft 200 kts 37°
2026-04-24 10:10 55.67730 12.74694 3812 ft 197 kts 40°
2026-04-24 10:10 55.68552 12.76657 4351 ft 208 kts 64°
2026-04-24 10:11 55.68823 12.79315 4535 ft 234 kts 88°
2026-04-24 10:11 55.68681 12.81263 4704 ft 249 kts 102°
2026-04-24 10:11 55.67919 12.84217 4831 ft 280 kts 126°
2026-04-24 10:11 55.66400 12.86432 5424 ft 287 kts 153°
2026-04-24 10:12 55.64039 12.88488 6396 ft 289 kts 153°
2026-04-24 10:12 55.62799 12.89579 6629 ft 301 kts 153°
2026-04-24 10:12 55.60538 12.92440 7511 ft 301 kts 135°
2026-04-24 10:12 55.59518 12.94124 8193 ft 293 kts 135°
2026-04-24 10:13 55.58050 12.96615 8848 ft 298 kts 133°
2026-04-24 10:13 55.56541 12.99237 9319 ft 308 kts 134°
2026-04-24 10:13 55.54993 13.01881 9949 ft 311 kts 134°
2026-04-24 10:13 55.53407 13.04542 10456 ft 321 kts 135°
2026-04-24 10:14 55.51723 13.07326 10611 ft 342 kts 135°
2026-04-24 10:14 55.49927 13.10267 10847 ft 359 kts 135°
2026-04-24 10:14 55.48072 13.13275 11402 ft 365 kts 136°
2026-04-24 10:14 55.46193 13.16306 12045 ft 367 kts 136°
2026-04-24 10:15 55.44296 13.19354 12664 ft 371 kts 136°
2026-04-24 10:15 55.42404 13.22388 13272 ft 375 kts 136°
2026-04-24 10:15 55.40438 13.25536 13884 ft 379 kts 136°
2026-04-24 10:15 55.38505 13.28628 14483 ft 383 kts 136°
2026-04-24 10:16 55.36521 13.31796 15104 ft 388 kts 136°
2026-04-24 10:16 55.34516 13.34991 15737 ft 391 kts 136°
2026-04-24 10:16 55.32489 13.38221 16344 ft 395 kts 137°
2026-04-24 10:16 55.30444 13.41475 16915 ft 399 kts 137°
2026-04-24 10:17 55.28377 13.44757 17478 ft 403 kts 137°
2026-04-24 10:17 55.26096 13.47640 17991 ft 408 kts 156°
2026-04-24 10:17 55.23374 13.48966 18569 ft 407 kts 176°
2026-04-24 10:17 55.20567 13.48772 19160 ft 403 kts 193°
2026-04-24 10:18 55.17811 13.47801 19701 ft 406 kts 195°
2026-04-24 10:18 55.15035 13.46754 20206 ft 409 kts 195°
2026-04-24 10:18 55.12243 13.45715 20732 ft 412 kts 195°
2026-04-24 10:18 55.09424 13.44706 21249 ft 415 kts 195°
2026-04-24 10:19 55.06586 13.43719 21738 ft 417 kts 194°
2026-04-24 10:19 55.03729 13.42738 22221 ft 420 kts 194°
2026-04-24 10:19 55.00852 13.41751 22691 ft 422 kts 195°
2026-04-24 10:19 54.97965 13.40756 23156 ft 424 kts 195°
2026-04-24 10:20 54.95058 13.39755 23598 ft 427 kts 195°
2026-04-24 10:20 54.92098 13.39019 24006 ft 434 kts 186°
2026-04-24 10:20 54.89066 13.39130 24429 ft 440 kts 176°
2026-04-24 10:20 54.86029 13.39935 24874 ft 443 kts 173°
2026-04-24 10:21 54.82985 13.40840 25285 ft 445 kts 173°
2026-04-24 10:21 54.79928 13.41741 25661 ft 447 kts 174°
2026-04-24 10:21 54.76849 13.42612 26029 ft 449 kts 174°
2026-04-24 10:21 54.73792 13.43444 26382 ft 451 kts 174°
2026-04-24 10:22 54.70642 13.44286 26733 ft 454 kts 175°
2026-04-24 10:22 54.67518 13.45116 27090 ft 455 kts 175°
2026-04-24 10:22 54.64422 13.45938 27432 ft 457 kts 175°
2026-04-24 10:22 54.61231 13.46784 27758 ft 459 kts 175°
2026-04-24 10:23 54.58069 13.47621 28055 ft 461 kts 175°
2026-04-24 10:23 54.54934 13.48452 28377 ft 463 kts 175°
2026-04-24 10:23 54.51705 13.49306 28672 ft 465 kts 175°
2026-04-24 10:23 54.48496 13.50146 28976 ft 467 kts 175°
2026-04-24 10:24 54.45321 13.50956 29265 ft 468 kts 175°
2026-04-24 10:24 54.42096 13.51770 29523 ft 470 kts 175°
2026-04-24 10:24 54.38850 13.52588 29772 ft 472 kts 175°
2026-04-24 10:24 54.35596 13.53410 30021 ft 474 kts 175°
2026-04-24 10:25 54.32328 13.54237 30284 ft 475 kts 175°
2026-04-24 10:25 54.29047 13.55077 30516 ft 478 kts 175°
2026-04-24 10:25 54.25751 13.55936 30696 ft 481 kts 175°
2026-04-24 10:25 54.22437 13.56806 30918 ft 482 kts 175°
2026-04-24 10:26 54.19127 13.57675 31235 ft 481 kts 175°
2026-04-24 10:26 54.15815 13.58542 31543 ft 481 kts 175°
2026-04-24 10:26 54.12507 13.59404 31796 ft 481 kts 175°
2026-04-24 10:26 54.09193 13.60263 32023 ft 482 kts 175°
2026-04-24 10:27 54.05872 13.61123 32280 ft 483 kts 175°
2026-04-24 10:27 54.02553 13.61982 32567 ft 482 kts 175°
2026-04-24 10:27 53.99242 13.62837 32845 ft 481 kts 175°
2026-04-24 10:27 53.95925 13.63694 33057 ft 482 kts 175°
2026-04-24 10:28 53.92602 13.64547 33245 ft 483 kts 175°
2026-04-24 10:28 53.89282 13.65448 33472 ft 484 kts 174°
2026-04-24 10:28 53.85965 13.66422 33742 ft 484 kts 174°
2026-04-24 10:28 53.82647 13.67426 33973 ft 484 kts 174°
2026-04-24 10:29 53.79334 13.68435 34158 ft 485 kts 174°
2026-04-24 10:29 53.76013 13.69442 34387 ft 484 kts 174°
2026-04-24 10:29 53.72700 13.70438 34643 ft 483 kts 174°
2026-04-24 10:29 53.69396 13.71424 34881 ft 482 kts 174°
2026-04-24 10:30 53.66089 13.72403 35046 ft 483 kts 174°
2026-04-24 10:30 53.62780 13.73379 35218 ft 483 kts 174°
2026-04-24 10:30 53.59467 13.74351 35445 ft 483 kts 174°
2026-04-24 10:30 53.56163 13.75320 35694 ft 481 kts 174°
2026-04-24 10:31 53.52863 13.76282 35900 ft 481 kts 174°
2026-04-24 10:31 53.49564 13.77243 36076 ft 481 kts 174°
2026-04-24 10:31 53.46256 13.78208 36105 ft 484 kts 174°
2026-04-24 10:32 53.39649 13.80131 36108 ft 485 kts 174°
2026-04-24 10:32 53.33044 13.82058 36099 ft 478 kts 174°
2026-04-24 10:33 53.26510 13.83954 36107 ft 475 kts 174°
2026-04-24 10:33 53.20012 13.85828 36109 ft 473 kts 174°
2026-04-24 10:34 53.13486 13.87702 36129 ft 480 kts 174°
2026-04-24 10:34 53.06862 13.89600 36125 ft 484 kts 174°
2026-04-24 10:35 53.00217 13.91503 36120 ft 485 kts 173°
2026-04-24 10:35 52.93554 13.93404 36113 ft 486 kts 173°
2026-04-24 10:36 52.86897 13.95294 36112 ft 485 kts 173°
2026-04-24 10:36 52.80260 13.97177 36120 ft 483 kts 173°
2026-04-24 10:37 52.73646 13.99046 36127 ft 482 kts 173°
2026-04-24 10:37 52.67050 14.00904 36124 ft 480 kts 173°
2026-04-24 10:38 52.60475 14.02750 36144 ft 479 kts 173°
2026-04-24 10:38 52.53885 14.04275 36131 ft 478 kts 175°
2026-04-24 10:39 52.47283 14.05571 36153 ft 478 kts 175°
2026-04-24 10:39 52.40671 14.06950 36152 ft 479 kts 175°
2026-04-24 10:40 52.34048 14.08326 36147 ft 480 kts 175°
2026-04-24 10:40 52.27454 14.09686 36151 ft 481 kts 175°
2026-04-24 10:41 52.20801 14.11091 36152 ft 482 kts 175°
2026-04-24 10:41 52.14137 14.12458 36147 ft 483 kts 175°
2026-04-24 10:42 52.07463 14.13818 36147 ft 483 kts 175°
2026-04-24 10:42 52.00786 14.15183 36151 ft 483 kts 175°
2026-04-24 10:43 51.94116 14.16542 36157 ft 483 kts 175°
2026-04-24 10:43 51.87447 14.17908 36156 ft 483 kts 174°
2026-04-24 10:44 51.80791 14.19315 36157 ft 482 kts 174°
2026-04-24 10:44 51.74133 14.20688 36159 ft 482 kts 175°
2026-04-24 10:45 51.67485 14.22027 36163 ft 481 kts 175°
2026-04-24 10:45 51.60840 14.23373 36168 ft 481 kts 174°
2026-04-24 10:46 51.54185 14.24450 36152 ft 478 kts 185°
2026-04-24 10:46 51.50912 14.23801 36212 ft 472 kts 197°
2026-04-24 10:46 51.47790 14.22239 36261 ft 469 kts 207°
2026-04-24 10:47 51.42062 14.17280 36271 ft 469 kts 214°
2026-04-24 10:47 51.36386 14.12113 36268 ft 469 kts 214°
2026-04-24 10:48 51.30683 14.07024 36313 ft 470 kts 213°
2026-04-24 10:48 51.27819 14.04496 36473 ft 470 kts 213°
2026-04-24 10:48 51.24960 14.01981 36688 ft 469 kts 213°
2026-04-24 10:48 51.22104 13.99476 36904 ft 468 kts 213°
2026-04-24 10:49 51.19296 13.97016 37142 ft 463 kts 213°
2026-04-24 10:49 51.13677 13.92099 37188 ft 460 kts 213°
2026-04-24 10:50 51.08001 13.87139 37195 ft 464 kts 212°
2026-04-24 10:50 51.02375 13.82237 37194 ft 465 kts 212°
2026-04-24 10:51 50.96686 13.77295 37191 ft 467 kts 212°
2026-04-24 10:51 50.91013 13.72386 37173 ft 460 kts 211°
2026-04-24 10:52 50.85048 13.68812 37195 ft 461 kts 197°
2026-04-24 10:52 50.78851 13.66203 37177 ft 460 kts 198°
2026-04-24 10:53 50.72593 13.64016 37157 ft 464 kts 184°
2026-04-24 10:53 50.66178 13.64886 37154 ft 466 kts 165°
2026-04-24 10:54 50.59916 13.67545 37163 ft 467 kts 164°
2026-04-24 10:54 50.53639 13.70248 37162 ft 469 kts 164°
2026-04-24 10:55 50.47316 13.72898 37152 ft 470 kts 165°
2026-04-24 10:55 50.40978 13.75506 37139 ft 472 kts 165°
2026-04-24 10:56 50.34615 13.78107 37139 ft 473 kts 165°
2026-04-24 10:56 50.28239 13.80708 37130 ft 474 kts 165°
2026-04-24 10:57 50.21857 13.83305 37120 ft 474 kts 165°
2026-04-24 10:57 50.15477 13.85894 37118 ft 474 kts 165°
2026-04-24 10:58 50.09146 13.88459 37117 ft 472 kts 164°
2026-04-24 10:58 50.02792 13.91027 37109 ft 471 kts 164°
2026-04-24 10:59 49.96450 13.93582 37109 ft 470 kts 165°
2026-04-24 10:59 49.92212 13.95284 37111 ft 470 kts 165°
2026-04-24 11:01 49.86709 13.97491 37117 ft 469 kts 165°
2026-04-24 11:02 49.80400 14.00016 37120 ft 468 kts 165°
2026-04-24 11:02 49.74100 14.02529 37120 ft 468 kts 165°
2026-04-24 11:03 49.67802 14.05035 37134 ft 467 kts 165°
2026-04-24 11:03 49.61498 14.07535 37126 ft 468 kts 164°
2026-04-24 11:04 49.55189 14.10031 37131 ft 468 kts 164°
2026-04-24 11:04 49.48876 14.12524 37139 ft 469 kts 164°
2026-04-24 11:05 49.42548 14.15017 37139 ft 470 kts 164°
2026-04-24 11:05 49.36213 14.17498 37143 ft 471 kts 164°
2026-04-24 11:06 49.29846 14.19992 37138 ft 472 kts 164°
2026-04-24 11:06 49.23471 14.22483 37138 ft 473 kts 164°
2026-04-24 11:07 49.13892 14.26213 37139 ft 474 kts 164°
2026-04-24 11:07 49.07503 14.28689 37131 ft 474 kts 164°
2026-04-24 11:08 49.01110 14.31163 37134 ft 474 kts 163°
2026-04-24 11:08 48.94726 14.33619 37137 ft 473 kts 165°
2026-04-24 11:09 48.88244 14.35474 37132 ft 474 kts 169°
2026-04-24 11:09 48.81743 14.37077 37137 ft 473 kts 168°
2026-04-24 11:10 48.75306 14.38756 37140 ft 472 kts 168°
2026-04-24 11:10 48.68903 14.40827 37152 ft 469 kts 162°
2026-04-24 11:11 48.62618 14.43469 37144 ft 468 kts 161°
2026-04-24 11:11 48.56348 14.46138 37143 ft 468 kts 161°
2026-04-24 11:12 48.50061 14.48745 37153 ft 468 kts 162°
2026-04-24 11:12 48.43756 14.51314 37151 ft 469 kts 162°
2026-04-24 11:13 48.37443 14.53869 37152 ft 470 kts 162°
2026-04-24 11:13 48.31123 14.56423 37156 ft 470 kts 162°
2026-04-24 11:14 48.24799 14.58976 37155 ft 471 kts 162°
2026-04-24 11:14 48.18469 14.61524 37152 ft 472 kts 162°
2026-04-24 11:15 48.12119 14.64073 37149 ft 473 kts 162°
2026-04-24 11:15 48.05770 14.66616 37147 ft 473 kts 162°
2026-04-24 11:16 47.99417 14.69154 37150 ft 473 kts 162°
2026-04-24 11:16 47.93058 14.71688 37144 ft 473 kts 161°
2026-04-24 11:17 47.86709 14.74212 37139 ft 472 kts 161°
2026-04-24 11:17 47.80419 14.76706 37130 ft 470 kts 161°
2026-04-24 11:18 47.74109 14.79201 37126 ft 468 kts 161°
2026-04-24 11:18 47.67818 14.81686 37115 ft 467 kts 162°
2026-04-24 11:19 47.61550 14.84151 37106 ft 466 kts 161°
2026-04-24 11:19 47.55285 14.86613 37111 ft 466 kts 161°
2026-04-24 11:20 47.49001 14.89027 37102 ft 468 kts 165°
2026-04-24 11:20 47.42565 14.90593 37104 ft 470 kts 169°
2026-04-24 11:21 47.36092 14.91895 37114 ft 469 kts 169°
2026-04-24 11:21 47.29620 14.93235 37100 ft 470 kts 168°
2026-04-24 11:22 47.23143 14.94632 37105 ft 471 kts 168°
2026-04-24 11:22 47.16663 14.96049 37111 ft 471 kts 168°
2026-04-24 11:23 47.10192 14.97465 37106 ft 470 kts 168°
2026-04-24 11:23 47.03717 14.98876 37108 ft 471 kts 168°
2026-04-24 11:24 46.97235 15.00283 37099 ft 471 kts 168°
2026-04-24 11:24 46.90793 15.01679 37094 ft 471 kts 168°
2026-04-24 11:25 46.84311 15.03079 37101 ft 471 kts 168°
2026-04-24 11:25 46.77827 15.04474 37095 ft 471 kts 168°
2026-04-24 11:26 46.71344 15.05868 37096 ft 470 kts 168°
2026-04-24 11:26 46.64878 15.07258 37103 ft 469 kts 168°
2026-04-24 11:27 46.58420 15.08641 37104 ft 468 kts 168°
2026-04-24 11:27 46.51966 15.10014 37078 ft 468 kts 168°
2026-04-24 11:28 46.45525 15.11384 37103 ft 467 kts 168°
2026-04-24 11:28 46.39092 15.12750 37084 ft 467 kts 168°
2026-04-24 11:29 46.32669 15.14110 37100 ft 466 kts 168°
2026-04-24 11:29 46.26257 15.15465 37085 ft 466 kts 168°
2026-04-24 11:30 46.19846 15.16816 37094 ft 466 kts 168°
2026-04-24 11:30 46.13471 15.18157 37101 ft 466 kts 168°
2026-04-24 11:31 46.07054 15.19505 37095 ft 466 kts 168°
2026-04-24 11:31 46.00625 15.20852 37091 ft 467 kts 168°
2026-04-24 11:32 45.94195 15.22194 37113 ft 467 kts 167°
2026-04-24 11:32 45.87761 15.23534 37104 ft 467 kts 167°
2026-04-24 11:33 45.81325 15.24872 37099 ft 467 kts 167°
2026-04-24 11:33 45.74884 15.26207 37103 ft 467 kts 167°
2026-04-24 11:34 45.68464 15.27536 37102 ft 466 kts 167°
2026-04-24 11:34 45.62049 15.28862 37098 ft 465 kts 167°
2026-04-24 11:35 45.55673 15.30334 37102 ft 461 kts 162°
2026-04-24 11:35 45.49505 15.32728 37112 ft 459 kts 159°
2026-04-24 11:36 45.43378 15.35272 37101 ft 459 kts 159°
2026-04-24 11:36 45.37238 15.37754 37102 ft 459 kts 160°
2026-04-24 11:37 45.31076 15.40178 37103 ft 460 kts 160°
2026-04-24 11:37 45.24906 15.42584 37094 ft 460 kts 160°
2026-04-24 11:38 45.18738 15.44984 37104 ft 460 kts 160°
2026-04-24 11:38 45.12566 15.47381 37111 ft 460 kts 160°
2026-04-24 11:39 45.06388 15.49776 37107 ft 461 kts 160°
2026-04-24 11:39 45.00197 15.52172 37104 ft 461 kts 160°
2026-04-24 11:40 44.94002 15.54564 37089 ft 462 kts 160°
2026-04-24 11:40 44.87801 15.56954 37097 ft 462 kts 160°
2026-04-24 11:41 44.81604 15.59334 37108 ft 462 kts 160°
2026-04-24 11:41 44.75398 15.61714 37101 ft 462 kts 160°
2026-04-24 11:42 44.69201 15.64086 37098 ft 461 kts 160°
2026-04-24 11:42 44.63011 15.66446 37094 ft 460 kts 160°
2026-04-24 11:43 44.56835 15.68797 37102 ft 460 kts 160°
2026-04-24 11:43 44.50663 15.71143 37101 ft 459 kts 160°
2026-04-24 11:44 44.44500 15.73479 37101 ft 458 kts 160°
2026-04-24 11:44 44.38393 15.75792 37084 ft 458 kts 160°
2026-04-24 11:45 44.32247 15.78113 37084 ft 457 kts 160°
2026-04-24 11:45 44.26103 15.80428 37113 ft 457 kts 160°
2026-04-24 11:46 44.19964 15.82736 37102 ft 457 kts 160°
2026-04-24 11:46 44.13781 15.84858 37097 ft 462 kts 168°
2026-04-24 11:47 44.07318 15.84952 37110 ft 467 kts 180°
2026-04-24 11:47 44.00826 15.84368 37099 ft 468 kts 180°
2026-04-24 11:48 43.94337 15.83805 37104 ft 467 kts 180°
2026-04-24 11:48 43.88936 15.83382 37093 ft 468 kts 180°
2026-04-24 11:49 43.82436 15.82900 37093 ft 468 kts 180°
2026-04-24 11:49 43.75919 15.82424 37103 ft 468 kts 180°
2026-04-24 11:50 43.69418 15.81946 37091 ft 468 kts 180°
2026-04-24 11:50 43.62909 15.81470 37087 ft 468 kts 180°
2026-04-24 11:51 43.56408 15.80996 37084 ft 468 kts 180°
2026-04-24 11:51 43.49900 15.80522 37080 ft 468 kts 180°
2026-04-24 11:52 43.43390 15.80048 37085 ft 468 kts 180°
2026-04-24 11:52 43.36889 15.79575 37083 ft 468 kts 180°
2026-04-24 11:53 43.30388 15.79103 37071 ft 468 kts 180°
2026-04-24 11:53 43.27116 15.78868 36742 ft 471 kts 180°
2026-04-24 11:53 43.23865 15.78633 36407 ft 466 kts 180°
2026-04-24 11:54 43.20645 15.78398 36023 ft 461 kts 180°
2026-04-24 11:54 43.17457 15.78167 35635 ft 457 kts 180°
2026-04-24 11:54 43.14292 15.77938 35236 ft 453 kts 180°
2026-04-24 11:54 43.11151 15.77711 34843 ft 450 kts 180°
2026-04-24 11:55 43.08035 15.77486 34451 ft 447 kts 180°
2026-04-24 11:55 43.04942 15.77264 34062 ft 444 kts 180°
2026-04-24 11:55 43.01871 15.77044 33677 ft 441 kts 180°
2026-04-24 11:55 42.98823 15.76826 33292 ft 437 kts 180°
2026-04-24 11:56 42.95796 15.76610 32918 ft 434 kts 180°
2026-04-24 11:56 42.92790 15.76395 32534 ft 431 kts 180°
2026-04-24 11:56 42.89806 15.76182 32159 ft 428 kts 180°
2026-04-24 11:56 42.86838 15.75970 31783 ft 426 kts 180°
2026-04-24 11:57 42.83890 15.75760 31410 ft 423 kts 180°
2026-04-24 11:57 42.80960 15.75551 31041 ft 420 kts 181°
2026-04-24 11:57 42.78049 15.75343 30669 ft 418 kts 181°
2026-04-24 11:57 42.75194 15.75142 30309 ft 415 kts 181°
2026-04-24 11:58 42.72317 15.74952 29944 ft 412 kts 178°
2026-04-24 11:58 42.69474 15.75196 29568 ft 406 kts 168°
2026-04-24 11:58 42.66749 15.76062 29222 ft 400 kts 161°
2026-04-24 11:58 42.64086 15.77106 28853 ft 397 kts 161°
2026-04-24 11:59 42.61877 15.77984 28539 ft 395 kts 161°
2026-04-24 11:59 42.59246 15.79029 28168 ft 393 kts 161°
2026-04-24 11:59 42.56628 15.80060 27797 ft 390 kts 161°
2026-04-24 11:59 42.54029 15.81074 27426 ft 388 kts 161°
2026-04-24 12:00 42.51442 15.82074 27061 ft 386 kts 161°
2026-04-24 12:00 42.48866 15.83065 26686 ft 384 kts 161°
2026-04-24 12:00 42.46301 15.84048 26328 ft 381 kts 161°
2026-04-24 12:00 42.43754 15.85022 25965 ft 380 kts 161°
2026-04-24 12:01 42.41222 15.85990 25606 ft 377 kts 161°
2026-04-24 12:01 42.38702 15.86952 25249 ft 375 kts 161°
2026-04-24 12:01 42.36199 15.87905 24895 ft 373 kts 161°
2026-04-24 12:01 42.33710 15.88852 24541 ft 370 kts 161°
2026-04-24 12:02 42.31236 15.89794 24190 ft 368 kts 161°
2026-04-24 12:02 42.28778 15.90730 23840 ft 366 kts 161°
2026-04-24 12:02 42.26332 15.91660 23489 ft 364 kts 162°
2026-04-24 12:02 42.23899 15.92585 23136 ft 362 kts 162°
2026-04-24 12:03 42.21483 15.93502 22789 ft 360 kts 162°
2026-04-24 12:03 42.19080 15.94414 22440 ft 358 kts 162°
2026-04-24 12:03 42.16687 15.95321 22096 ft 356 kts 162°
2026-04-24 12:03 42.14306 15.96223 21751 ft 354 kts 162°
2026-04-24 12:04 42.11940 15.97118 21408 ft 353 kts 162°
2026-04-24 12:04 42.09581 15.98010 21067 ft 351 kts 162°
2026-04-24 12:04 42.07235 15.98895 20727 ft 350 kts 162°
2026-04-24 12:04 42.04898 15.99778 20387 ft 348 kts 162°
2026-04-24 12:05 42.02572 16.00655 20049 ft 346 kts 162°
2026-04-24 12:05 42.00257 16.01528 19710 ft 345 kts 162°
2026-04-24 12:05 41.97951 16.02397 19373 ft 343 kts 162°
2026-04-24 12:05 41.95688 16.03249 19045 ft 341 kts 162°
2026-04-24 12:06 41.93411 16.04104 18737 ft 339 kts 161°
2026-04-24 12:06 41.91191 16.05138 18395 ft 335 kts 150°
2026-04-24 12:06 41.89234 16.06756 18150 ft 328 kts 142°
2026-04-24 12:06 41.87383 16.08533 17807 ft 326 kts 141°
2026-04-24 12:07 41.85551 16.10314 17497 ft 324 kts 141°
2026-04-24 12:07 41.83731 16.12084 17177 ft 323 kts 141°
2026-04-24 12:07 41.81913 16.13843 16850 ft 321 kts 141°
2026-04-24 12:07 41.80100 16.15589 16533 ft 320 kts 141°
2026-04-24 12:08 41.78293 16.17322 16204 ft 319 kts 141°
2026-04-24 12:08 41.76491 16.19048 15882 ft 318 kts 141°
2026-04-24 12:08 41.74694 16.20765 15559 ft 317 kts 142°
2026-04-24 12:08 41.72903 16.22472 15238 ft 315 kts 142°
2026-04-24 12:09 41.71124 16.24167 14926 ft 313 kts 142°
2026-04-24 12:09 41.69350 16.25854 14593 ft 312 kts 142°
2026-04-24 12:09 41.67582 16.27535 14283 ft 311 kts 142°
2026-04-24 12:09 41.65822 16.29205 13965 ft 309 kts 142°
2026-04-24 12:10 41.64076 16.30867 13657 ft 308 kts 142°
2026-04-24 12:10 41.62332 16.32521 13324 ft 307 kts 142°
2026-04-24 12:10 41.60595 16.34168 13009 ft 305 kts 142°
2026-04-24 12:11 41.57149 16.37430 12390 ft 302 kts 142°
2026-04-24 12:11 41.55438 16.39050 12064 ft 301 kts 142°
2026-04-24 12:11 41.53730 16.40666 11758 ft 300 kts 142°
2026-04-24 12:11 41.52031 16.42272 11452 ft 299 kts 142°
2026-04-24 12:12 41.50335 16.43874 11146 ft 298 kts 142°
2026-04-24 12:12 41.48649 16.45466 10844 ft 295 kts 143°
2026-04-24 12:12 41.46971 16.47041 10534 ft 294 kts 142°
2026-04-24 12:12 41.45309 16.48611 10292 ft 290 kts 142°
2026-04-24 12:13 41.43905 16.49934 10188 ft 283 kts 142°
2026-04-24 12:13 41.42315 16.51432 9955 ft 280 kts 143°
2026-04-24 12:13 41.40919 16.53193 9647 ft 275 kts 121°
2026-04-24 12:13 41.39933 16.55351 9394 ft 271 kts 118°
2026-04-24 12:14 41.38975 16.57513 9099 ft 270 kts 118°
2026-04-24 12:14 41.38025 16.59654 8809 ft 268 kts 118°
2026-04-24 12:14 41.37074 16.61779 8541 ft 266 kts 118°
2026-04-24 12:14 41.36134 16.63868 8279 ft 266 kts 118°
2026-04-24 12:15 41.35186 16.65968 8006 ft 264 kts 118°
2026-04-24 12:15 41.34239 16.68060 7734 ft 264 kts 118°
2026-04-24 12:15 41.33291 16.70148 7457 ft 263 kts 118°
2026-04-24 12:15 41.32345 16.72226 7194 ft 262 kts 118°
2026-04-24 12:16 41.31403 16.74295 6929 ft 260 kts 119°
2026-04-24 12:16 41.30467 16.76351 6657 ft 260 kts 119°
2026-04-24 12:16 41.29533 16.78399 6394 ft 259 kts 119°
2026-04-24 12:16 41.28599 16.80440 6135 ft 257 kts 119°
2026-04-24 12:17 41.27758 16.82520 5865 ft 254 kts 104°
2026-04-24 12:17 41.27714 16.84791 5610 ft 244 kts 75°
2026-04-24 12:17 41.28218 16.86911 5445 ft 237 kts 66°
2026-04-24 12:17 41.28812 16.88942 5339 ft 236 kts 66°
2026-04-24 12:18 41.29409 16.90984 5241 ft 238 kts 66°
2026-04-24 12:18 41.30005 16.93053 5079 ft 240 kts 66°
2026-04-24 12:18 41.30586 16.95082 5009 ft 231 kts 66°
2026-04-24 12:18 41.31147 16.97067 4953 ft 228 kts 67°
2026-04-24 12:19 41.31704 16.99045 4927 ft 230 kts 66°
2026-04-24 12:19 41.32267 17.01048 4895 ft 233 kts 67°
2026-04-24 12:19 41.32836 17.03084 4865 ft 235 kts 67°
2026-04-24 12:19 41.33294 17.05170 4796 ft 237 kts 85°
2026-04-24 12:20 41.32868 17.07231 4598 ft 239 kts 124°
2026-04-24 12:20 41.31631 17.08662 4493 ft 230 kts 152°
2026-04-24 12:20 41.30166 17.09247 4354 ft 218 kts 176°
2026-04-24 12:20 41.28668 17.09073 4316 ft 216 kts 193°
2026-04-24 12:21 41.27211 17.08666 4262 ft 213 kts 193°
2026-04-24 12:21 41.25770 17.08267 4186 ft 210 kts 193°
2026-04-24 12:21 41.24370 17.07881 4099 ft 201 kts 193°
2026-04-24 12:21 41.23068 17.07341 4011 ft 194 kts 217°
2026-04-24 12:22 41.22344 17.05962 4021 ft 182 kts 255°
2026-04-24 12:22 41.21904 17.04323 3785 ft 194 kts 252°
2026-04-24 12:22 41.21422 17.02680 3580 ft 188 kts 252°
2026-04-24 12:22 41.20959 17.01076 3372 ft 184 kts 252°
2026-04-24 12:23 41.20508 16.99501 3186 ft 182 kts 252°
2026-04-24 12:23 41.20058 16.97924 3005 ft 183 kts 252°
2026-04-24 12:23 41.19610 16.96348 2813 ft 183 kts 252°
2026-04-24 12:23 41.19163 16.94777 2634 ft 180 kts 252°
2026-04-24 12:24 41.18720 16.93224 2535 ft 179 kts 252°
2026-04-24 12:24 41.18281 16.91680 2369 ft 177 kts 252°
2026-04-24 12:24 41.17862 16.90213 2183 ft 162 kts 252°
2026-04-24 12:24 41.17479 16.88868 1988 ft 151 kts 253°
2026-04-24 12:25 41.17104 16.87540 1749 ft 153 kts 252°
2026-04-24 12:25 41.16734 16.86234 1547 ft 149 kts 253°
2026-04-24 12:25 41.16372 16.84960 1353 ft 147 kts 252°
2026-04-24 12:25 41.16010 16.83680 1160 ft 148 kts 252°
2026-04-24 12:26 41.15647 16.82402 961 ft 147 kts 252°
2026-04-24 12:26 41.15288 16.81134 766 ft 147 kts 252°
2026-04-24 12:26 41.14935 16.79887 571 ft 141 kts 252°
2026-04-24 12:26 41.14600 16.78702 376 ft 134 kts 251°
2026-04-24 12:27 41.14274 16.77555 225 ft 135 kts 251°
2026-04-24 12:27 41.13953 16.76423 125 ft 121 kts 252°
2026-04-24 12:27 41.13732 16.75630 139 ft 61 kts 250°
2026-04-24 12:27 41.13625 16.75239 138 ft 41 kts 250°
2026-04-24 12:28 41.13522 16.74893 137 ft 38 kts 249°
2026-04-24 12:28 41.13430 16.74734 142 ft 17 kts 171°
2026-04-24 12:28 41.13358 16.74854 146 ft 17 kts 121°
2026-04-24 12:28 41.13360 16.74999 147 ft 16 kts 73°
2026-04-24 12:29 41.13403 16.75137 145 ft 17 kts 70°
2026-04-24 12:29 41.13443 16.75284 141 ft 17 kts 69°
2026-04-24 12:29 41.13487 16.75431 141 ft 17 kts 68°
2026-04-24 12:29 41.13527 16.75577 138 ft 18 kts 69°
2026-04-24 12:30 41.13572 16.75734 137 ft 18 kts 69°
2026-04-24 12:30 41.13615 16.75885 136 ft 17 kts 68°
2026-04-24 12:30 41.13639 16.75972 135 ft 6 kts 75°
2026-04-24 12:30 41.13631 16.76026 135 ft 6 kts 124°
2026-04-24 12:31 41.13600 16.76065 135 ft 6 kts 141°
2026-04-24 12:31 41.13562 16.76107 135 ft 8 kts 134°
2026-04-24 12:31 41.13555 16.76175 135 ft 8 kts 71°
2026-04-24 12:31 41.13577 16.76252 135 ft 9 kts 70°
2026-04-24 12:32 41.13587 16.76301 135 ft 4 kts 95°
2026-04-24 12:32 41.13566 16.76324 135 ft 5 kts 158°
2026-04-24 12:32 41.13536 16.76339 135 ft 0 kts 159°
2026-04-24 12:32 41.13532 16.76341 135 ft 2 kts 159°
2026-04-24 12:33 41.13530 16.76343 135 ft 0 kts 159°